Year,Month,Day,Hour,Minute,Value (Times are PST for temperature in C)
2008,05,28,00,00,13.10
2008,05,28,00,01,13.10
2008,05,28,00,02,13.20
2008,05,28,00,03,13.10
2008,05,28,00,04,13.10
2008,05,28,00,05,13.10
2008,05,28,00,06,13.10
2008,05,28,00,07,13.10
2008,05,28,00,08,13.10
2008,05,28,00,09,13.10
2008,05,28,00,10,13.10
2008,05,28,00,11,13.10
2008,05,28,00,12,13.10
2008,05,28,00,13,13.10
2008,05,28,00,14,13.10
2008,05,28,00,15,13.10
2008,05,28,00,16,13.10
2008,05,28,00,17,13.10
2008,05,28,00,18,13.00
2008,05,28,00,19,13.00
2008,05,28,00,20,12.90
2008,05,28,00,21,12.90
2008,05,28,00,22,12.80
2008,05,28,00,23,12.80
2008,05,28,00,24,12.80
2008,05,28,00,25,12.80
2008,05,28,00,26,12.70
2008,05,28,00,27,12.70
2008,05,28,00,28,12.70
2008,05,28,00,29,12.60
2008,05,28,00,30,12.60
2008,05,28,00,31,12.60
2008,05,28,00,32,12.60
2008,05,28,00,33,12.50
2008,05,28,00,34,12.50
2008,05,28,00,35,12.50
2008,05,28,00,36,12.40
2008,05,28,00,37,12.40
2008,05,28,00,38,12.40
2008,05,28,00,39,12.30
2008,05,28,00,40,12.30
2008,05,28,00,41,12.30
2008,05,28,00,42,12.30
2008,05,28,00,43,12.30
2008,05,28,00,44,12.30
2008,05,28,00,45,12.30
2008,05,28,00,46,12.30
2008,05,28,00,47,12.30
2008,05,28,00,48,12.30
2008,05,28,00,49,12.30
2008,05,28,00,50,12.30
2008,05,28,00,51,12.30
2008,05,28,00,52,12.30
2008,05,28,00,53,12.40
2008,05,28,00,54,12.50
2008,05,28,00,55,12.50
2008,05,28,00,56,12.50
2008,05,28,00,57,12.50
2008,05,28,00,58,12.50
2008,05,28,00,59,12.50
2008,05,28,01,00,12.50
2008,05,28,01,01,12.50
2008,05,28,01,02,12.50
2008,05,28,01,03,12.40
2008,05,28,01,04,12.40
2008,05,28,01,05,12.40
2008,05,28,01,06,12.40
2008,05,28,01,07,12.30
2008,05,28,01,08,12.30
2008,05,28,01,09,12.30
2008,05,28,01,10,12.30
2008,05,28,01,11,12.30
2008,05,28,01,12,12.30
2008,05,28,01,13,12.30
2008,05,28,01,14,12.20
2008,05,28,01,15,12.20
2008,05,28,01,16,12.20
2008,05,28,01,17,12.20
2008,05,28,01,18,12.20
2008,05,28,01,19,12.20
2008,05,28,01,20,12.20
2008,05,28,01,21,12.20
2008,05,28,01,22,12.20
2008,05,28,01,23,12.20
2008,05,28,01,24,12.20
2008,05,28,01,25,12.20
2008,05,28,01,26,12.20
2008,05,28,01,27,12.20
2008,05,28,01,28,12.20
2008,05,28,01,29,12.20
2008,05,28,01,30,12.20
2008,05,28,01,31,12.20
2008,05,28,01,32,12.20
2008,05,28,01,33,12.20
2008,05,28,01,34,12.20
2008,05,28,01,35,12.20
2008,05,28,01,36,12.20
2008,05,28,01,37,12.20
2008,05,28,01,38,12.20
2008,05,28,01,39,12.10
2008,05,28,01,40,12.10
2008,05,28,01,41,12.10
2008,05,28,01,42,12.10
2008,05,28,01,43,12.10
2008,05,28,01,44,12.10
2008,05,28,01,45,12.10
2008,05,28,01,46,12.00
2008,05,28,01,47,12.00
2008,05,28,01,48,12.00
2008,05,28,01,49,11.90
2008,05,28,01,50,11.90
2008,05,28,01,51,11.90
2008,05,28,01,52,11.80
2008,05,28,01,53,11.80
2008,05,28,01,54,11.80
2008,05,28,01,55,11.80
2008,05,28,01,56,11.80
2008,05,28,01,57,11.80
2008,05,28,01,58,11.80
2008,05,28,01,59,11.80
2008,05,28,02,00,11.80
2008,05,28,02,01,11.80
2008,05,28,02,02,11.80
2008,05,28,02,03,11.80
2008,05,28,02,04,11.80
2008,05,28,02,05,11.80
2008,05,28,02,06,11.80
2008,05,28,02,07,11.80
2008,05,28,02,08,11.80
2008,05,28,02,09,11.80
2008,05,28,02,10,11.80
2008,05,28,02,11,11.80
2008,05,28,02,12,11.80
2008,05,28,02,13,11.80
2008,05,28,02,14,11.80
2008,05,28,02,15,11.80
2008,05,28,02,16,11.80
2008,05,28,02,17,11.80
2008,05,28,02,18,11.80
2008,05,28,02,19,11.80
2008,05,28,02,20,11.80
2008,05,28,02,21,11.80
2008,05,28,02,22,11.80
2008,05,28,02,23,11.80
2008,05,28,02,24,11.80
2008,05,28,02,25,11.80
2008,05,28,02,26,11.80
2008,05,28,02,27,11.80
2008,05,28,02,28,11.90
2008,05,28,02,29,11.90
2008,05,28,02,30,11.90
2008,05,28,02,31,11.90
2008,05,28,02,32,11.90
2008,05,28,02,33,11.90
2008,05,28,02,34,11.90
2008,05,28,02,35,11.90
2008,05,28,02,36,11.90
2008,05,28,02,37,11.90
2008,05,28,02,38,11.90
2008,05,28,02,39,11.90
2008,05,28,02,40,11.90
2008,05,28,02,41,11.90
2008,05,28,02,42,11.90
2008,05,28,02,43,12.00
2008,05,28,02,44,12.00
2008,05,28,02,45,12.10
2008,05,28,02,46,12.10
2008,05,28,02,47,12.20
2008,05,28,02,48,12.20
2008,05,28,02,49,12.20
2008,05,28,02,50,12.20
2008,05,28,02,51,12.20
2008,05,28,02,52,12.20
2008,05,28,02,53,12.20
2008,05,28,02,54,12.20
2008,05,28,02,55,12.20
2008,05,28,02,56,12.20
2008,05,28,02,57,12.30
2008,05,28,02,58,12.30
2008,05,28,02,59,12.30
2008,05,28,03,00,12.20
2008,05,28,03,01,12.20
2008,05,28,03,02,12.20
2008,05,28,03,03,12.20
2008,05,28,03,04,12.10
2008,05,28,03,05,12.10
2008,05,28,03,06,12.10
2008,05,28,03,07,12.10
2008,05,28,03,08,12.10
2008,05,28,03,09,12.10
2008,05,28,03,10,12.10
2008,05,28,03,11,12.10
2008,05,28,03,12,12.10
2008,05,28,03,13,12.00
2008,05,28,03,14,12.00
2008,05,28,03,15,12.10
2008,05,28,03,16,12.10
2008,05,28,03,17,12.20
2008,05,28,03,18,12.20
2008,05,28,03,19,12.20
2008,05,28,03,20,12.30
2008,05,28,03,21,12.30
2008,05,28,03,22,12.30
2008,05,28,03,23,12.30
2008,05,28,03,24,12.30
2008,05,28,03,25,12.30
2008,05,28,03,26,12.30
2008,05,28,03,27,12.30
2008,05,28,03,28,12.30
2008,05,28,03,29,12.30
2008,05,28,03,30,12.30
2008,05,28,03,31,12.30
2008,05,28,03,32,12.30
2008,05,28,03,33,12.30
2008,05,28,03,34,12.30
2008,05,28,03,35,12.30
2008,05,28,03,36,12.30
2008,05,28,03,37,12.30
2008,05,28,03,38,12.30
2008,05,28,03,39,12.30
2008,05,28,03,40,12.30
2008,05,28,03,41,12.30
2008,05,28,03,42,12.30
2008,05,28,03,43,12.30
2008,05,28,03,44,12.30
2008,05,28,03,45,12.30
2008,05,28,03,46,12.30
2008,05,28,03,47,12.30
2008,05,28,03,48,12.30
2008,05,28,03,49,12.30
2008,05,28,03,50,12.30
2008,05,28,03,51,12.30
2008,05,28,03,52,12.30
2008,05,28,03,53,12.30
2008,05,28,03,54,12.30
2008,05,28,03,55,12.30
2008,05,28,03,56,12.30
2008,05,28,03,57,12.30
2008,05,28,03,58,12.30
2008,05,28,03,59,12.30
2008,05,28,04,00,12.30
2008,05,28,04,01,12.30
2008,05,28,04,02,12.30
2008,05,28,04,03,12.30
2008,05,28,04,04,12.30
2008,05,28,04,05,12.30
2008,05,28,04,06,12.30
2008,05,28,04,07,12.30
2008,05,28,04,08,12.30
2008,05,28,04,09,12.30
2008,05,28,04,10,12.30
2008,05,28,04,11,12.30
2008,05,28,04,12,12.30
2008,05,28,04,13,12.30
2008,05,28,04,14,12.30
2008,05,28,04,15,12.30
2008,05,28,04,16,12.30
2008,05,28,04,17,12.30
2008,05,28,04,18,12.30
2008,05,28,04,19,12.30
2008,05,28,04,20,12.30
2008,05,28,04,21,12.30
2008,05,28,04,22,12.20
2008,05,28,04,23,12.20
2008,05,28,04,24,12.20
2008,05,28,04,25,12.20
2008,05,28,04,26,12.20
2008,05,28,04,27,12.20
2008,05,28,04,28,12.20
2008,05,28,04,29,12.30
2008,05,28,04,30,12.30
2008,05,28,04,31,12.30
2008,05,28,04,32,12.30
2008,05,28,04,33,12.30
2008,05,28,04,34,12.30
2008,05,28,04,35,12.30
2008,05,28,04,36,12.30
2008,05,28,04,37,12.30
2008,05,28,04,38,12.30
2008,05,28,04,39,12.30
2008,05,28,04,40,12.30
2008,05,28,04,41,12.30
2008,05,28,04,42,12.30
2008,05,28,04,43,12.30
2008,05,28,04,44,12.30
2008,05,28,04,45,12.30
2008,05,28,04,46,12.30
2008,05,28,04,47,12.30
2008,05,28,04,48,12.30
2008,05,28,04,49,12.30
2008,05,28,04,50,12.30
2008,05,28,04,51,12.30
2008,05,28,04,52,12.30
2008,05,28,04,53,12.30
2008,05,28,04,54,12.30
2008,05,28,04,55,12.30
2008,05,28,04,56,12.30
2008,05,28,04,57,12.30
2008,05,28,04,58,12.30
2008,05,28,04,59,12.30
2008,05,28,05,00,12.30
2008,05,28,05,01,12.30
2008,05,28,05,02,12.30
2008,05,28,05,03,12.30
2008,05,28,05,04,12.30
2008,05,28,05,05,12.30
2008,05,28,05,06,12.30
2008,05,28,05,07,12.30
2008,05,28,05,08,12.30
2008,05,28,05,09,12.30
2008,05,28,05,10,12.20
2008,05,28,05,11,12.20
2008,05,28,05,12,12.20
2008,05,28,05,13,12.20
2008,05,28,05,14,12.20
2008,05,28,05,15,12.20
2008,05,28,05,16,12.20
2008,05,28,05,17,12.20
2008,05,28,05,18,12.20
2008,05,28,05,19,12.10
2008,05,28,05,20,12.10
2008,05,28,05,21,12.10
2008,05,28,05,22,12.10
2008,05,28,05,23,12.10
2008,05,28,05,24,12.10
2008,05,28,05,25,12.10
2008,05,28,05,26,12.10
2008,05,28,05,27,12.00
2008,05,28,05,28,12.00
2008,05,28,05,29,12.00
2008,05,28,05,30,12.00
2008,05,28,05,31,12.00
2008,05,28,05,32,12.00
2008,05,28,05,33,12.00
2008,05,28,05,34,12.00
2008,05,28,05,35,12.00
2008,05,28,05,36,12.00
2008,05,28,05,37,12.00
2008,05,28,05,38,12.00
2008,05,28,05,39,11.90
2008,05,28,05,40,11.90
2008,05,28,05,41,11.90
2008,05,28,05,42,11.90
2008,05,28,05,43,11.90
2008,05,28,05,44,11.90
2008,05,28,05,45,11.90
2008,05,28,05,46,11.90
2008,05,28,05,47,11.90
2008,05,28,05,48,11.90
2008,05,28,05,49,11.90
2008,05,28,05,50,11.90
2008,05,28,05,51,11.90
2008,05,28,05,52,11.90
2008,05,28,05,53,11.90
2008,05,28,05,54,11.90
2008,05,28,05,55,11.90
2008,05,28,05,56,11.90
2008,05,28,05,57,11.90
2008,05,28,05,58,11.90
2008,05,28,05,59,11.90
2008,05,28,06,00,11.90
2008,05,28,06,01,11.90
2008,05,28,06,02,11.90
2008,05,28,06,03,11.90
2008,05,28,06,04,11.90
2008,05,28,06,05,11.90
2008,05,28,06,06,11.90
2008,05,28,06,07,12.00
2008,05,28,06,08,12.00
2008,05,28,06,09,12.00
2008,05,28,06,10,12.00
2008,05,28,06,11,12.00
2008,05,28,06,12,12.00
2008,05,28,06,13,12.00
2008,05,28,06,14,12.00
2008,05,28,06,15,12.00
2008,05,28,06,16,12.00
2008,05,28,06,17,12.00
2008,05,28,06,18,12.00
2008,05,28,06,19,12.00
2008,05,28,06,20,12.00
2008,05,28,06,21,12.00
2008,05,28,06,22,12.00
2008,05,28,06,23,12.00
2008,05,28,06,24,12.10
2008,05,28,06,25,12.10
2008,05,28,06,26,12.10
2008,05,28,06,27,12.10
2008,05,28,06,28,12.10
2008,05,28,06,29,12.10
2008,05,28,06,30,12.10
2008,05,28,06,31,12.10
2008,05,28,06,32,12.10
2008,05,28,06,33,12.10
2008,05,28,06,34,12.10
2008,05,28,06,35,12.10
2008,05,28,06,36,12.10
2008,05,28,06,37,12.10
2008,05,28,06,38,12.10
2008,05,28,06,39,12.10
2008,05,28,06,40,12.10
2008,05,28,06,41,12.10
2008,05,28,06,42,12.10
2008,05,28,06,43,12.10
2008,05,28,06,44,12.20
2008,05,28,06,45,12.20
2008,05,28,06,46,12.20
2008,05,28,06,47,12.20
2008,05,28,06,48,12.20
2008,05,28,06,49,12.20
2008,05,28,06,50,12.20
2008,05,28,06,51,12.20
2008,05,28,06,52,12.20
2008,05,28,06,53,12.20
2008,05,28,06,54,12.30
2008,05,28,06,55,12.30
2008,05,28,06,56,12.30
2008,05,28,06,57,12.30
2008,05,28,06,58,12.30
2008,05,28,06,59,12.30
2008,05,28,07,00,12.30
2008,05,28,07,01,12.30
2008,05,28,07,02,12.30
2008,05,28,07,03,12.30
2008,05,28,07,04,12.30
2008,05,28,07,05,12.40
2008,05,28,07,06,12.40
2008,05,28,07,07,12.40
2008,05,28,07,08,12.40
2008,05,28,07,09,12.50
2008,05,28,07,10,12.50
2008,05,28,07,11,12.50
2008,05,28,07,12,12.50
2008,05,28,07,13,12.60
2008,05,28,07,14,12.60
2008,05,28,07,15,12.60
2008,05,28,07,16,12.60
2008,05,28,07,17,12.70
2008,05,28,07,18,12.70
2008,05,28,07,19,12.70
2008,05,28,07,20,12.70
2008,05,28,07,21,12.80
2008,05,28,07,22,12.80
2008,05,28,07,23,12.80
2008,05,28,07,24,12.80
2008,05,28,07,25,12.80
2008,05,28,07,26,12.80
2008,05,28,07,27,12.90
2008,05,28,07,28,12.90
2008,05,28,07,29,12.90
2008,05,28,07,30,12.90
2008,05,28,07,31,12.90
2008,05,28,07,32,13.00
2008,05,28,07,33,13.00
2008,05,28,07,34,13.10
2008,05,28,07,35,13.10
2008,05,28,07,36,13.10
2008,05,28,07,37,13.20
2008,05,28,07,38,13.20
2008,05,28,07,39,13.20
2008,05,28,07,40,13.30
2008,05,28,07,41,13.30
2008,05,28,07,42,13.30
2008,05,28,07,43,13.30
2008,05,28,07,44,13.30
2008,05,28,07,45,13.30
2008,05,28,07,46,13.40
2008,05,28,07,47,13.40
2008,05,28,07,48,13.40
2008,05,28,07,49,13.50
2008,05,28,07,50,13.50
2008,05,28,07,51,13.60
2008,05,28,07,52,13.60
2008,05,28,07,53,13.70
2008,05,28,07,54,13.70
2008,05,28,07,55,13.70
2008,05,28,07,56,13.70
2008,05,28,07,57,13.70
2008,05,28,07,58,13.80
2008,05,28,07,59,13.80
2008,05,28,08,00,13.80
2008,05,28,08,01,13.90
2008,05,28,08,02,13.90
2008,05,28,08,03,13.90
2008,05,28,08,04,14.00
2008,05,28,08,05,14.00
2008,05,28,08,06,14.10
2008,05,28,08,07,14.10
2008,05,28,08,08,14.20
2008,05,28,08,09,14.20
2008,05,28,08,10,14.30
2008,05,28,08,11,14.40
2008,05,28,08,12,14.50
2008,05,28,08,13,14.60
2008,05,28,08,14,14.70
2008,05,28,08,15,14.70
2008,05,28,08,16,14.80
2008,05,28,08,17,14.80
2008,05,28,08,18,14.80
2008,05,28,08,19,14.80
2008,05,28,08,20,14.90
2008,05,28,08,21,14.90
2008,05,28,08,22,14.90
2008,05,28,08,23,14.90
2008,05,28,08,24,14.90
2008,05,28,08,25,14.90
2008,05,28,08,26,15.00
2008,05,28,08,27,15.00
2008,05,28,08,28,15.10
2008,05,28,08,29,15.10
2008,05,28,08,30,15.10
2008,05,28,08,31,15.10
2008,05,28,08,32,15.10
2008,05,28,08,33,15.10
2008,05,28,08,34,15.10
2008,05,28,08,35,15.20
2008,05,28,08,36,15.20
2008,05,28,08,37,15.30
2008,05,28,08,38,15.30
2008,05,28,08,39,15.30
2008,05,28,08,40,15.30
2008,05,28,08,41,15.30
2008,05,28,08,42,15.40
2008,05,28,08,43,15.40
2008,05,28,08,44,15.40
2008,05,28,08,45,15.40
2008,05,28,08,46,15.40
2008,05,28,08,47,15.40
2008,05,28,08,48,15.40
2008,05,28,08,49,15.40
2008,05,28,08,50,15.50
2008,05,28,08,51,15.50
2008,05,28,08,52,15.50
2008,05,28,08,53,15.60
2008,05,28,08,54,15.60
2008,05,28,08,55,15.70
2008,05,28,08,56,15.70
2008,05,28,08,57,15.80
2008,05,28,08,58,15.80
2008,05,28,08,59,15.80
2008,05,28,09,00,15.80
2008,05,28,09,01,15.80
2008,05,28,09,02,15.90
2008,05,28,09,03,15.90
2008,05,28,09,04,16.00
2008,05,28,09,05,16.10
2008,05,28,09,06,16.10
2008,05,28,09,07,16.20
2008,05,28,09,08,16.30
2008,05,28,09,09,16.30
2008,05,28,09,10,16.30
2008,05,28,09,11,16.30
2008,05,28,09,12,16.30
2008,05,28,09,13,16.30
2008,05,28,09,14,16.30
2008,05,28,09,15,16.30
2008,05,28,09,16,16.30
2008,05,28,09,17,16.30
2008,05,28,09,18,16.40
2008,05,28,09,19,16.40
2008,05,28,09,20,16.40
2008,05,28,09,21,16.60
2008,05,28,09,22,16.70
2008,05,28,09,23,16.80
2008,05,28,09,24,16.90
2008,05,28,09,25,16.90
2008,05,28,09,26,17.00
2008,05,28,09,27,17.00
2008,05,28,09,28,17.00
2008,05,28,09,29,17.10
2008,05,28,09,30,17.20
2008,05,28,09,31,17.30
2008,05,28,09,32,17.30
2008,05,28,09,33,17.40
2008,05,28,09,34,17.50
2008,05,28,09,35,17.50
2008,05,28,09,36,17.50
2008,05,28,09,37,17.40
2008,05,28,09,38,17.40
2008,05,28,09,39,17.30
2008,05,28,09,40,17.30
2008,05,28,09,41,17.30
2008,05,28,09,42,17.30
2008,05,28,09,43,17.30
2008,05,28,09,44,17.30
2008,05,28,09,45,17.20
2008,05,28,09,46,17.00
2008,05,28,09,47,16.90
2008,05,28,09,48,16.80
2008,05,28,09,49,16.60
2008,05,28,09,50,16.60
2008,05,28,09,51,16.60
2008,05,28,09,52,16.60
2008,05,28,09,53,16.60
2008,05,28,09,54,16.70
2008,05,28,09,55,16.70
2008,05,28,09,56,16.70
2008,05,28,09,57,16.70
2008,05,28,09,58,16.80
2008,05,28,09,59,16.70
2008,05,28,10,00,16.70
2008,05,28,10,01,16.70
2008,05,28,10,02,16.80
2008,05,28,10,03,16.90
2008,05,28,10,04,16.90
2008,05,28,10,05,17.00
2008,05,28,10,06,17.00
2008,05,28,10,07,17.00
2008,05,28,10,08,16.90
2008,05,28,10,09,16.90
2008,05,28,10,10,17.00
2008,05,28,10,11,17.00
2008,05,28,10,12,17.20
2008,05,28,10,13,17.30
2008,05,28,10,14,17.20
2008,05,28,10,15,17.00
2008,05,28,10,16,17.00
2008,05,28,10,17,17.00
2008,05,28,10,18,16.90
2008,05,28,10,19,16.90
2008,05,28,10,20,16.90
2008,05,28,10,21,16.90
2008,05,28,10,22,17.00
2008,05,28,10,23,17.00
2008,05,28,10,24,17.10
2008,05,28,10,25,17.10
2008,05,28,10,26,17.10
2008,05,28,10,27,17.10
2008,05,28,10,28,17.10
2008,05,28,10,29,17.10
2008,05,28,10,30,17.10
2008,05,28,10,31,17.10
2008,05,28,10,32,17.20
2008,05,28,10,33,17.20
2008,05,28,10,34,17.20
2008,05,28,10,35,17.30
2008,05,28,10,36,17.30
2008,05,28,10,37,17.20
2008,05,28,10,38,17.10
2008,05,28,10,39,17.10
2008,05,28,10,40,17.10
2008,05,28,10,41,17.20
2008,05,28,10,42,17.30
2008,05,28,10,43,17.30
2008,05,28,10,44,17.30
2008,05,28,10,45,17.20
2008,05,28,10,46,17.10
2008,05,28,10,47,17.10
2008,05,28,10,48,17.20
2008,05,28,10,49,17.10
2008,05,28,10,50,17.00
2008,05,28,10,51,17.00
2008,05,28,10,52,17.00
2008,05,28,10,53,16.90
2008,05,28,10,54,17.00
2008,05,28,10,55,17.00
2008,05,28,10,56,17.00
2008,05,28,10,57,17.00
2008,05,28,10,58,17.00
2008,05,28,10,59,17.10
2008,05,28,11,00,17.20
2008,05,28,11,01,17.20
2008,05,28,11,02,17.30
2008,05,28,11,03,17.30
2008,05,28,11,04,17.30
2008,05,28,11,05,17.30
2008,05,28,11,06,17.40
2008,05,28,11,07,17.40
2008,05,28,11,08,17.40
2008,05,28,11,09,17.50
2008,05,28,11,10,17.50
2008,05,28,11,11,17.60
2008,05,28,11,12,17.70
2008,05,28,11,13,17.60
2008,05,28,11,14,17.60
2008,05,28,11,15,17.50
2008,05,28,11,16,17.50
2008,05,28,11,17,17.50
2008,05,28,11,18,17.60
2008,05,28,11,19,17.40
2008,05,28,11,20,17.30
2008,05,28,11,21,17.20
2008,05,28,11,22,17.10
2008,05,28,11,23,17.10
2008,05,28,11,24,17.20
2008,05,28,11,25,17.30
2008,05,28,11,26,17.20
2008,05,28,11,27,17.20
2008,05,28,11,28,17.20
2008,05,28,11,29,17.20
2008,05,28,11,30,17.20
2008,05,28,11,31,17.10
2008,05,28,11,32,17.10
2008,05,28,11,33,17.20
2008,05,28,11,34,17.20
2008,05,28,11,35,17.30
2008,05,28,11,36,17.50
2008,05,28,11,37,17.50
2008,05,28,11,38,17.60
2008,05,28,11,39,17.70
2008,05,28,11,40,17.70
2008,05,28,11,41,17.70
2008,05,28,11,42,17.70
2008,05,28,11,43,17.70
2008,05,28,11,44,17.80
2008,05,28,11,45,17.80
2008,05,28,11,46,17.80
2008,05,28,11,47,17.80
2008,05,28,11,48,17.70
2008,05,28,11,49,17.60
2008,05,28,11,50,17.50
2008,05,28,11,51,17.50
2008,05,28,11,52,17.70
2008,05,28,11,53,17.80
2008,05,28,11,54,17.90
2008,05,28,11,55,18.10
2008,05,28,11,56,18.20
2008,05,28,11,57,18.20
2008,05,28,11,58,18.20
2008,05,28,11,59,18.10
2008,05,28,12,00,17.90
2008,05,28,12,01,17.90
2008,05,28,12,02,17.90
2008,05,28,12,03,18.00
2008,05,28,12,04,18.10
2008,05,28,12,05,18.10
2008,05,28,12,06,18.00
2008,05,28,12,07,17.90
2008,05,28,12,08,17.90
2008,05,28,12,09,17.90
2008,05,28,12,10,17.90
2008,05,28,12,11,17.90
2008,05,28,12,12,17.90
2008,05,28,12,13,17.90
2008,05,28,12,14,17.90
2008,05,28,12,15,17.90
2008,05,28,12,16,17.80
2008,05,28,12,17,17.80
2008,05,28,12,18,17.90
2008,05,28,12,19,17.90
2008,05,28,12,20,17.90
2008,05,28,12,21,17.90
2008,05,28,12,22,17.80
2008,05,28,12,23,17.70
2008,05,28,12,24,17.80
2008,05,28,12,25,17.90
2008,05,28,12,26,18.10
2008,05,28,12,27,18.20
2008,05,28,12,28,18.30
2008,05,28,12,29,18.40
2008,05,28,12,30,18.40
2008,05,28,12,31,18.50
2008,05,28,12,32,18.60
2008,05,28,12,33,18.60
2008,05,28,12,34,18.50
2008,05,28,12,35,18.40
2008,05,28,12,36,18.40
2008,05,28,12,37,18.30
2008,05,28,12,38,18.20
2008,05,28,12,39,18.10
2008,05,28,12,40,18.20
2008,05,28,12,41,18.20
2008,05,28,12,42,18.20
2008,05,28,12,43,18.20
2008,05,28,12,44,18.20
2008,05,28,12,45,18.20
2008,05,28,12,46,18.20
2008,05,28,12,47,18.30
2008,05,28,12,48,18.40
2008,05,28,12,49,18.20
2008,05,28,12,50,18.20
2008,05,28,12,51,18.10
2008,05,28,12,52,18.00
2008,05,28,12,53,17.90
2008,05,28,12,54,17.90
2008,05,28,12,55,17.90
2008,05,28,12,56,17.90
2008,05,28,12,57,17.90
2008,05,28,12,58,18.00
2008,05,28,12,59,18.10
2008,05,28,13,00,18.10
2008,05,28,13,01,18.20
2008,05,28,13,02,18.20
2008,05,28,13,03,18.30
2008,05,28,13,04,18.40
2008,05,28,13,05,18.50
2008,05,28,13,06,18.60
2008,05,28,13,07,18.70
2008,05,28,13,08,18.60
2008,05,28,13,09,18.40
2008,05,28,13,10,18.30
2008,05,28,13,11,18.20
2008,05,28,13,12,18.00
2008,05,28,13,13,17.90
2008,05,28,13,14,17.90
2008,05,28,13,15,17.90
2008,05,28,13,16,17.90
2008,05,28,13,17,17.90
2008,05,28,13,18,17.90
2008,05,28,13,19,18.00
2008,05,28,13,20,18.10
2008,05,28,13,21,18.20
2008,05,28,13,22,18.40
2008,05,28,13,23,18.50
2008,05,28,13,24,18.70
2008,05,28,13,25,18.70
2008,05,28,13,26,18.70
2008,05,28,13,27,18.70
2008,05,28,13,28,18.70
2008,05,28,13,29,18.80
2008,05,28,13,30,18.70
2008,05,28,13,31,18.70
2008,05,28,13,32,18.80
2008,05,28,13,33,18.80
2008,05,28,13,34,18.80
2008,05,28,13,35,18.70
2008,05,28,13,36,18.60
2008,05,28,13,37,18.60
2008,05,28,13,38,18.50
2008,05,28,13,39,18.60
2008,05,28,13,40,18.60
2008,05,28,13,41,18.70
2008,05,28,13,42,18.70
2008,05,28,13,43,18.60
2008,05,28,13,44,18.60
2008,05,28,13,45,18.60
2008,05,28,13,46,18.60
2008,05,28,13,47,18.50
2008,05,28,13,48,18.30
2008,05,28,13,49,18.40
2008,05,28,13,50,18.40
2008,05,28,13,51,18.40
2008,05,28,13,52,18.40
2008,05,28,13,53,18.30
2008,05,28,13,54,18.40
2008,05,28,13,55,18.40
2008,05,28,13,56,18.40
2008,05,28,13,57,18.40
2008,05,28,13,58,18.40
2008,05,28,13,59,18.50
2008,05,28,14,00,18.60
2008,05,28,14,01,18.60
2008,05,28,14,02,18.70
2008,05,28,14,03,18.80
2008,05,28,14,04,18.80
2008,05,28,14,05,18.80
2008,05,28,14,06,18.80
2008,05,28,14,07,18.80
2008,05,28,14,08,18.80
2008,05,28,14,09,18.70
2008,05,28,14,10,18.70
2008,05,28,14,11,18.70
2008,05,28,14,12,18.80
2008,05,28,14,13,18.80
2008,05,28,14,14,18.80
2008,05,28,14,15,18.70
2008,05,28,14,16,18.70
2008,05,28,14,17,18.60
2008,05,28,14,18,18.60
2008,05,28,14,19,18.60
2008,05,28,14,20,18.60
2008,05,28,14,21,18.70
2008,05,28,14,22,18.80
2008,05,28,14,23,18.90
2008,05,28,14,24,18.90
2008,05,28,14,25,19.00
2008,05,28,14,26,19.10
2008,05,28,14,27,19.00
2008,05,28,14,28,18.90
2008,05,28,14,29,18.90
2008,05,28,14,30,18.90
2008,05,28,14,31,18.90
2008,05,28,14,32,19.10
2008,05,28,14,33,19.00
2008,05,28,14,34,18.90
2008,05,28,14,35,18.70
2008,05,28,14,36,18.60
2008,05,28,14,37,18.50
2008,05,28,14,38,18.50
2008,05,28,14,39,18.40
2008,05,28,14,40,18.40
2008,05,28,14,41,18.40
2008,05,28,14,42,18.40
2008,05,28,14,43,18.40
2008,05,28,14,44,18.50
2008,05,28,14,45,18.60
2008,05,28,14,46,18.60
2008,05,28,14,47,18.80
2008,05,28,14,48,18.90
2008,05,28,14,49,18.90
2008,05,28,14,50,19.00
2008,05,28,14,51,19.10
2008,05,28,14,52,19.10
2008,05,28,14,53,19.10
2008,05,28,14,54,19.20
2008,05,28,14,55,19.30
2008,05,28,14,56,19.30
2008,05,28,14,57,19.30
2008,05,28,14,58,19.20
2008,05,28,14,59,19.30
2008,05,28,15,00,19.30
2008,05,28,15,01,19.40
2008,05,28,15,02,19.50
2008,05,28,15,03,19.60
2008,05,28,15,04,19.80
2008,05,28,15,05,19.80
2008,05,28,15,06,19.90
2008,05,28,15,07,19.90
2008,05,28,15,08,19.90
2008,05,28,15,09,19.90
2008,05,28,15,10,19.90
2008,05,28,15,11,19.90
2008,05,28,15,12,19.90
2008,05,28,15,13,19.90
2008,05,28,15,14,20.00
2008,05,28,15,15,20.10
2008,05,28,15,16,20.00
2008,05,28,15,17,19.90
2008,05,28,15,18,20.10
2008,05,28,15,19,20.20
2008,05,28,15,20,20.20
2008,05,28,15,21,20.30
2008,05,28,15,22,20.30
2008,05,28,15,23,20.40
2008,05,28,15,24,20.50
2008,05,28,15,25,20.50
2008,05,28,15,26,20.60
2008,05,28,15,27,20.80
2008,05,28,15,28,20.90
2008,05,28,15,29,20.90
2008,05,28,15,30,20.90
2008,05,28,15,31,20.90
2008,05,28,15,32,20.80
2008,05,28,15,33,20.90
2008,05,28,15,34,20.90
2008,05,28,15,35,20.90
2008,05,28,15,36,20.80
2008,05,28,15,37,20.70
2008,05,28,15,38,20.80
2008,05,28,15,39,20.90
2008,05,28,15,40,21.00
2008,05,28,15,41,21.10
2008,05,28,15,42,21.30
2008,05,28,15,43,21.40
2008,05,28,15,44,21.60
2008,05,28,15,45,21.60
2008,05,28,15,46,21.80
2008,05,28,15,47,21.90
2008,05,28,15,48,22.00
2008,05,28,15,49,22.00
2008,05,28,15,50,22.10
2008,05,28,15,51,22.00
2008,05,28,15,52,21.70
2008,05,28,15,53,21.60
2008,05,28,15,54,21.60
2008,05,28,15,55,21.60
2008,05,28,15,56,21.70
2008,05,28,15,57,21.70
2008,05,28,15,58,21.80
2008,05,28,15,59,21.80
2008,05,28,16,00,21.70
2008,05,28,16,01,21.70
2008,05,28,16,02,21.60
2008,05,28,16,03,21.60
2008,05,28,16,04,21.50
2008,05,28,16,05,21.30
2008,05,28,16,06,21.30
2008,05,28,16,07,21.40
2008,05,28,16,08,21.50
2008,05,28,16,09,21.60
2008,05,28,16,10,21.60
2008,05,28,16,11,21.60
2008,05,28,16,12,21.50
2008,05,28,16,13,21.40
2008,05,28,16,14,21.30
2008,05,28,16,15,21.20
2008,05,28,16,16,21.20
2008,05,28,16,17,21.10
2008,05,28,16,18,21.20
2008,05,28,16,19,21.10
2008,05,28,16,20,21.00
2008,05,28,16,21,20.90
2008,05,28,16,22,20.90
2008,05,28,16,23,20.90
2008,05,28,16,24,20.90
2008,05,28,16,25,21.00
2008,05,28,16,26,21.10
2008,05,28,16,27,21.20
2008,05,28,16,28,21.20
2008,05,28,16,29,21.30
2008,05,28,16,30,21.20
2008,05,28,16,31,21.00
2008,05,28,16,32,20.90
2008,05,28,16,33,20.90
2008,05,28,16,34,20.90
2008,05,28,16,35,20.90
2008,05,28,16,36,21.00
2008,05,28,16,37,21.00
2008,05,28,16,38,21.10
2008,05,28,16,39,21.10
2008,05,28,16,40,21.20
2008,05,28,16,41,21.20
2008,05,28,16,42,21.20
2008,05,28,16,43,21.10
2008,05,28,16,44,21.10
2008,05,28,16,45,21.10
2008,05,28,16,46,21.10
2008,05,28,16,47,21.10
2008,05,28,16,48,21.10
2008,05,28,16,49,21.20
2008,05,28,16,50,21.20
2008,05,28,16,51,21.30
2008,05,28,16,52,21.30
2008,05,28,16,53,21.50
2008,05,28,16,54,21.60
2008,05,28,16,55,21.60
2008,05,28,16,56,21.60
2008,05,28,16,57,21.70
2008,05,28,16,58,21.70
2008,05,28,16,59,21.70
2008,05,28,17,00,21.70
2008,05,28,17,01,21.60
2008,05,28,17,02,21.60
2008,05,28,17,03,21.50
2008,05,28,17,04,21.30
2008,05,28,17,05,21.20
2008,05,28,17,06,21.20
2008,05,28,17,07,21.10
2008,05,28,17,08,21.10
2008,05,28,17,09,21.20
2008,05,28,17,10,21.20
2008,05,28,17,11,21.30
2008,05,28,17,12,21.30
2008,05,28,17,13,21.50
2008,05,28,17,14,21.70
2008,05,28,17,15,21.80
2008,05,28,17,16,21.90
2008,05,28,17,17,22.00
2008,05,28,17,18,22.10
2008,05,28,17,19,22.10